"2010-06-09 00:00:00",184780,9.97,81.3,1.221,0.38,19.04,106.8776,16.88,17.82,54.15,0,110.4,13.39,17.69,43.3
"2010-06-09 00:00:30",184781,9.9,80.9,0.853,0.362,19.18,106.8779,16.88,17.82,54.11,0,110.4,13.39,17.69,42.9
"2010-06-09 00:01:00",184782,9.66,79.76,0.886,0.192,19.04,106.8788,16.88,17.82,53.73,0,110.4,13.39,17.70,41.8
"2010-06-09 00:01:30",184783,10.25,81,1.39,0.258,19.2,106.8779,16.88,17.82,54.05,0,110.4,13.39,17.69,43.0
"2010-06-09 00:02:00",184784,10.06,80,0.923,0.231,18.97,106.8791,16.89,17.82,53.97,0,110.4,13.39,17.70,42.0
"2010-06-09 00:02:30",184785,9.89,80.4,1.043,0.224,18.94,106.8815,16.89,17.83,53.89,0,110.4,13.39,17.70,42.4
"2010-06-09 00:03:00",184786,9.71,78.79,1.738,0.211,18.83,106.8831,16.9,17.83,54.03,0,110.4,13.39,17.71,40.8
"2010-06-09 00:03:30",184787,9.65,79.99,0.756,0.152,18.66,106.8855,16.9,17.81,54.06,0,110.4,13.39,17.71,42.0
"2010-06-09 00:04:00",184788,9.65,82.6,0.785,0.213,18.73,106.8891,16.91,17.82,54.01,0,110.4,13.39,17.72,44.6
"2010-06-09 00:04:30",184789,9.47,84.5,1.141,0.2,16.33,106.8897,16.91,17.81,54.19,0,110.4,13.39,17.72,46.5
"2010-06-09 00:05:00",184790,10.56,91.7,6.617,1.419,20.3,106.8913,16.92,17.94,54.53,0,110.4,13.35,17.73,53.7
"2010-06-09 00:05:30",184791,12.67,103.1,5.319,0.725,23.65,106.8686,16.86,18.12,55.01,0,110.4,13.35,17.67,65.1
"2010-06-09 00:06:00",184792,13.05,104.3,3.188,1.031,23.19,106.867,16.85,18.11,55.06,0,110.4,13.35,17.67,66.3
"2010-06-09 00:06:30",184793,13.58,106.4,4.217,0.751,23.21,106.844,16.8,18.09,55.53,0,110.4,13.35,17.61,68.4
"2010-06-09 00:07:00",184794,13.68,105.8,4.489,0.667,22.97,106.8299,16.76,18.06,55.73,0,110.4,13.35,17.57,67.8
"2010-06-09 00:07:30",184795,13.81,106.4,4.391,0.701,23.04,106.802,16.69,18.03,55.84,0,110.4,13.34,17.50,68.4
"2010-06-09 00:08:00",184796,13.61,105.7,4.898,0.78,22.86,106.7761,16.62,17.96,56.27,0,110.4,13.34,17.43,67.7
"2010-06-09 00:08:30",184797,13.68,106.5,2.828,0.735,22.67,106.7535,16.56,17.94,56.78,0,110.4,13.33,17.37,68.5
"2010-06-09 00:09:00",184798,12.63,102.4,6.812,1.223,20.64,106.7307,16.5,17.7,56.69,0,110.4,13.34,17.31,64.4
"2010-06-09 00:09:30",184799,10.98,94,0.955,0.214,17.81,106.7019,16.43,17.49,56.82,0,110.4,13.37,17.24,56.0
"2010-06-09 00:10:00",184800,11.61,96.3,2.499,0.353,13.07,106.6802,16.38,17.44,56.98,0,110.4,13.37,17.18,58.3
"2010-06-09 00:10:30",184801,11.25,96.2,1.845,0.349,18.1,106.6667,16.34,17.4,56.96,0,110.4,13.37,17.15,58.2
"2010-06-09 00:11:00",184802,11.74,97.7,1.978,0.264,18.58,106.6554,16.31,17.35,57.06,0,110.4,13.37,17.12,59.7
"2010-06-09 00:11:30",184803,11.44,97.1,2.247,0.333,18.37,106.6331,16.25,17.31,57.19,0,110.4,13.38,17.06,59.1
"2010-06-09 00:12:00",184804,12.21,97.6,0.909,0.172,18.44,106.6331,16.25,17.29,56.66,0,110.4,13.38,17.06,59.6
"2010-06-09 00:12:30",184805,11.9,97.9,1.009,0.213,18.48,106.6311,16.25,17.26,56.59,0,110.4,13.39,17.06,59.9
"2010-06-09 00:13:00",184806,11.86,98.6,1.06,0.309,18.23,106.6244,16.23,17.25,56.62,0,110.4,13.39,17.04,60.6
"2010-06-09 00:13:30",184807,11.72,99.5,1.323,0.193,18.25,106.6128,16.2,17.22,56.91,0,110.4,13.39,17.01,61.5
"2010-06-09 00:14:00",184808,11.61,102.8,1.414,0.385,18.05,106.6091,16.19,17.23,56.86,0,110.4,13.39,17.00,64.8
"2010-06-09 00:14:30",184809,11.74,101.9,0.904,0.514,18.01,106.6201,16.22,17.2,56.87,0,110.4,13.39,17.03,63.9
"2010-06-09 00:15:00",184810,12.17,103.3,0.737,0.118,18.04,106.6238,16.23,17.2,56.6,0,110.4,13.39,17.04,65.3
"2010-06-09 00:15:30",184811,11.98,102.6,0.842,0.131,18,106.6289,16.24,17.2,56.4,0,110.4,13.39,17.05,64.6
"2010-06-09 00:16:00",184812,11.56,103.5,0.547,0.121,18.01,106.6328,16.25,17.2,56.44,0,110.4,13.39,17.06,65.5
"2010-06-09 00:16:30",184813,11.78,103.7,0.381,0.187,17.93,106.6328,16.25,17.2,56.47,0,110.4,13.39,17.06,65.7
"2010-06-09 00:17:00",184814,11.47,103.9,1.135,0.148,17.84,106.6328,16.25,17.22,56.61,0,110.4,13.39,17.06,65.9
"2010-06-09 00:17:30",184815,11.6,103.4,1.46,0.141,17.81,106.6328,16.25,17.21,56.65,0,110.4,13.39,17.06,65.4
"2010-06-09 00:18:00",184816,11.71,102.9,0.525,0.055,17.79,106.6331,16.25,17.23,56.54,0,110.4,13.39,17.06,64.9
"2010-06-09 00:18:30",184817,11.69,103.9,0.843,0.083,17.76,106.6385,16.27,17.21,56.35,0,110.4,13.39,17.08,65.9
"2010-06-09 00:19:00",184818,11.67,103.2,0.692,0.084,17.71,106.6565,16.31,17.22,56.37,0,110.4,13.39,17.12,65.2
"2010-06-09 00:19:30",184819,11.55,103.6,0.868,0.079,17.68,106.6621,16.33,17.23,56.41,0,110.4,13.39,17.14,65.6
"2010-06-09 00:20:00",184820,11.59,104.1,1.058,0.144,17.68,106.6658,16.34,17.22,56.33,0,110.4,13.39,17.15,66.1
"2010-06-09 00:20:30",184821,11.44,104.2,0.651,0.107,17.62,106.6667,16.34,17.24,56.39,0,110.4,13.39,17.15,66.2
"2010-06-09 00:21:00",184822,11.36,104.7,0.797,0.101,17.59,106.6667,16.34,17.23,56.34,0,110.4,13.39,17.15,66.7
"2010-06-09 00:21:30",184823,11.45,105.3,0.645,0.069,17.59,106.6667,16.34,17.25,56.33,0,110.4,13.39,17.15,67.3
"2010-06-09 00:22:00",184824,11.34,105.3,0.486,0.081,17.6,106.6667,16.34,17.24,56.24,0,110.4,13.39,17.15,67.3
"2010-06-09 00:22:30",184825,11.36,104.6,0.582,0.097,17.57,106.6667,16.34,17.24,56.33,0,110.4,13.39,17.15,66.6
"2010-06-09 00:23:00",184826,11.42,104.4,1.07,0.087,17.59,106.6664,16.34,17.25,56.32,0,110.4,13.39,17.15,66.4
"2010-06-09 00:23:30",184827,11.11,103.8,0.952,0.227,17.63,106.6643,16.33,17.24,56.33,0,110.4,13.39,17.14,65.8
"2010-06-09 00:24:00",184828,11.32,104.4,1.131,0.239,17.59,106.6585,16.32,17.24,56.31,0,110.4,13.38,17.13,66.4
"2010-06-09 00:24:30",184829,11.2,102.9,0.803,0.15,17.58,106.6564,16.31,17.25,56.27,0,110.4,13.38,17.12,64.9
"2010-06-09 00:25:00",184830,11.26,102.5,1.33,0.115,17.61,106.6534,16.31,17.25,56.25,0,110.4,13.38,17.12,64.5
"2010-06-09 00:25:30",184831,11.24,102,1.217,0.15,17.6,106.6489,16.3,17.25,56.3,0,110.4,13.38,17.10,64.0
"2010-06-09 00:26:00",184832,11.45,101.3,0.961,0.101,17.62,106.6444,16.28,17.24,56.31,0,110.4,13.38,17.09,63.3
"2010-06-09 00:26:30",184833,11.37,102.5,0.758,0.163,17.6,106.6423,16.28,17.26,56.39,0,110.4,13.38,17.09,64.5
"2010-06-09 00:27:00",184834,11.1,102.9,0.637,0.214,17.59,106.6414,16.28,17.24,56.37,0,110.4,13.38,17.08,64.9
"2010-06-09 00:27:30",184835,10.84,101,0.916,0.088,17.6,106.6414,16.28,17.25,56.35,0,110.4,13.38,17.08,63.0
"2010-06-09 00:28:00",184836,10.66,99.7,0.698,0.153,17.55,106.6414,16.28,17.24,56.49,0,110.4,13.38,17.08,61.7
"2010-06-09 00:28:30",184837,10.12,99.1,0.854,0.185,17.49,106.6402,16.27,17.24,56.69,0,110.4,13.38,17.08,61.1
"2010-06-09 00:29:00",184838,9.89,99.1,1.435,0.147,17.43,106.6408,16.27,17.23,57.12,0,110.5,13.38,17.08,61.1
"2010-06-09 00:29:30",184839,9.73,95.8,2.797,0.14,17.26,106.6358,16.26,17.22,57.93,0,110.5,13.38,17.07,57.8
"2010-06-09 00:30:00",184840,9.74,96,1.232,0.162,17.51,106.6074,16.19,17.2,57.05,0,110.5,13.38,17.00,58.0
"2010-06-09 00:30:30",184841,9.99,94.6,1.349,0.251,17.35,106.6046,16.18,17.18,57.71,0,110.5,13.38,16.99,56.6
"2010-06-09 00:31:00",184842,10.16,95.7,0.806,0.225,17.49,106.6034,16.18,17.16,56.97,0,110.5,13.38,16.99,57.7
"2010-06-09 00:31:30",184843,10.06,96.2,1.748,0.303,17.56,106.6016,16.17,17.15,56.73,0,110.5,13.38,16.98,58.2
"2010-06-09 00:32:00",184844,10.12,94.9,2.445,0.22,17.5,106.5995,16.17,17.14,56.65,0,110.5,13.38,16.98,56.9
"2010-06-09 00:32:30",184845,10.36,92.5,0.592,0.194,17.41,106.5985,16.17,17.14,56.69,0,110.5,13.38,16.97,54.5
"2010-06-09 00:33:00",184846,9.98,95.2,2.191,0.282,17.55,106.6009,16.17,17.14,56.57,0,110.5,13.38,16.98,57.2
"2010-06-09 00:33:30",184847,10.02,93.3,1.25,0.329,17.48,106.6154,16.21,17.14,56.53,0,110.5,13.38,17.02,55.3
"2010-06-09 00:34:00",184848,10.15,93.3,1.27,0.163,17.48,106.6264,16.24,17.16,56.63,0,110.5,13.38,17.05,55.3
"2010-06-09 00:34:30",184849,10.46,93.1,0.809,0.474,17.45,106.6312,16.25,17.16,56.59,0,110.5,13.38,17.06,55.1
"2010-06-09 00:35:00",184850,10.52,94.5,2.48,0.402,17.53,106.6306,16.25,17.18,56.57,0,110.5,13.39,17.06,56.5
"2010-06-09 00:35:30",184851,10.63,94.3,1.078,0.255,17.4,106.6306,16.25,17.18,56.86,0,110.5,13.39,17.06,56.3
"2010-06-09 00:36:00",184852,10.32,92.2,0.919,0.177,17.18,106.6306,16.25,17.18,57.32,0,110.5,13.39,17.06,54.2
"2010-06-09 00:36:30",184853,10.28,91.6,0.71,0.181,17.18,106.6306,16.25,17.19,57.69,0,110.5,13.39,17.06,53.6
"2010-06-09 00:37:00",184854,10.75,91.2,0.532,0.308,17.22,106.6306,16.25,17.2,57.26,0,110.5,13.39,17.06,53.2
"2010-06-09 00:37:30",184855,11.02,91.7,0.779,0.095,17.24,106.6306,16.25,17.18,57.01,0,110.5,13.39,17.06,53.7
"2010-06-09 00:38:00",184856,11,90.3,0.951,0.186,17.2,106.6306,16.25,17.18,57.18,0,110.5,13.39,17.06,52.3
"2010-06-09 00:38:30",184857,10.53,90.2,0.799,0.192,17.19,106.6306,16.25,17.17,57.17,0,110.5,13.39,17.06,52.2
"2010-06-09 00:39:00",184858,10.22,90.8,1.636,0.407,17.14,106.6306,16.25,17.17,56.97,0,110.5,13.39,17.06,52.8
"2010-06-09 00:39:30",184859,10.62,90.7,0.934,0.127,16.99,106.6306,16.25,17.19,57.08,0,110.5,13.39,17.06,52.7
"2010-06-09 00:40:00",184860,10.22,91.1,0.938,0.309,17.14,106.6306,16.25,17.18,56.84,0,110.5,13.39,17.06,53.1
"2010-06-09 00:40:30",184861,10.47,89.5,0.611,0.103,17.04,106.6306,16.25,17.19,57.1,0,110.5,13.39,17.06,51.5
"2010-06-09 00:41:00",184862,10.02,91.2,1.496,0.331,17.16,106.6306,16.25,17.2,56.94,0,110.5,13.39,17.06,53.2
"2010-06-09 00:41:30",184863,10.17,90,0.775,0.198,17.07,106.6314,16.25,17.2,57.13,0,110.5,13.38,17.06,52.0
"2010-06-09 00:42:00",184864,9.98,90.2,0.704,0.109,17.05,106.6314,16.25,17.21,57.1,0,110.5,13.38,17.06,52.2
"2010-06-09 00:42:30",184865,9.92,90.4,0.47,0.157,16.99,106.6348,16.26,17.21,56.88,0,110.5,13.39,17.07,52.4
"2010-06-09 00:43:00",184866,10.02,90.3,0.575,0.151,16.85,106.6385,16.27,17.21,57.14,0,110.5,13.38,17.08,52.3
"2010-06-09 00:43:30",184867,10.67,91.3,0.746,0.265,16.74,106.639,16.27,17.2,57.36,0,110.4,13.38,17.08,53.3
"2010-06-09 00:44:00",184868,10.82,92.7,0.3,0.084,16.89,106.6382,16.27,17.2,57.45,0,110.4,13.38,17.08,54.7
"2010-06-09 00:44:30",184869,10.86,93.4,0.193,0.1,17.02,106.6334,16.26,17.19,57.66,0,110.5,13.38,17.06,55.4
"2010-06-09 00:45:00",184870,10.76,93.3,0.319,0.166,17.07,106.6306,16.25,17.2,58.08,0,110.5,13.39,17.06,55.3
"2010-06-09 00:45:30",184871,10.82,93.7,0.441,0.097,17.17,106.6306,16.25,17.2,58.15,0,110.5,13.39,17.06,55.7
"2010-06-09 00:46:00",184872,10.67,94.7,0.749,0.075,17.15,106.6292,16.24,17.18,58.86,0,110.5,13.39,17.05,56.7
"2010-06-09 00:46:30",184873,10.54,95,0.522,0.111,17.33,106.6092,16.19,17.17,58.78,0,110.5,13.39,17.00,57.0
"2010-06-09 00:47:00",184874,10.48,93.7,0.638,0.17,17.26,106.5968,16.16,17.13,59.07,0,110.5,13.39,16.97,55.7
"2010-06-09 00:47:30",184875,10.51,93.4,0.229,0.093,17.31,106.5968,16.16,17.12,58.98,0,110.5,13.38,16.97,55.4
"2010-06-09 00:48:00",184876,10.32,93.8,0.447,0.093,17.35,106.5939,16.15,17.11,58.86,0,110.5,13.38,16.96,55.8
"2010-06-09 00:48:30",184877,10.11,94.2,0.422,0.123,17.34,106.5739,16.1,17.08,58.73,0,110.5,13.38,16.91,56.2
"2010-06-09 00:49:00",184878,9.95,93.3,1.216,0.124,17.25,106.5629,16.07,17.06,59.41,0,110.5,13.38,16.88,55.3
"2010-06-09 00:49:30",184879,9.75,92.2,1.743,0.186,17.23,106.5629,16.07,17.04,60,0,110.5,13.38,16.88,54.2
"2010-06-09 00:50:00",184880,9.58,89.9,0.861,0.112,17.1,106.5508,16.04,17,60.79,0,110.4,13.38,16.85,51.9
"2010-06-09 00:50:30",184881,9.41,89.7,1.068,0.142,17.17,106.5294,15.99,16.99,60.83,0,110.4,13.38,16.80,51.7
"2010-06-09 00:51:00",184882,9.46,89,1.581,0.225,17.16,106.5291,15.99,16.96,60.8,0,110.4,13.38,16.80,51.0
"2010-06-09 00:51:30",184883,9.49,88.6,1.73,0.259,17.13,106.504,15.92,16.93,60.84,0,110.4,13.39,16.73,50.6
"2010-06-09 00:52:00",184884,9.61,86.4,2.706,0.218,17.15,106.4953,15.9,16.9,61.54,0,110.4,13.39,16.71,48.4
"2010-06-09 00:52:30",184885,9.15,84.4,2.715,0.249,17.15,106.4882,15.88,16.88,60.51,0,110.4,13.39,16.69,46.4
"2010-06-09 00:53:00",184886,9.3,87,2.291,0.237,17.15,106.4626,15.82,16.85,61.33,0,110.4,13.39,16.63,49.0
"2010-06-09 00:53:30",184887,9.78,83.2,1.678,0.314,17.16,106.4614,15.81,16.8,61.03,0,110.4,13.39,16.62,45.2
"2010-06-09 00:54:00",184888,9.15,86.1,1.615,0.277,17.21,106.4566,15.8,16.79,60.72,0,110.4,13.39,16.61,48.1
"2010-06-09 00:54:30",184889,9.43,87.2,2.514,0.196,17.16,106.4386,15.76,16.75,60.75,0,110.4,13.39,16.56,49.2
"2010-06-09 00:55:00",184890,9.43,87,1.898,0.198,17.15,106.4276,15.73,16.75,60.64,0,110.4,13.4,16.54,49.0
"2010-06-09 00:55:30",184891,9.94,89.3,1.971,0.19,17.18,106.4276,15.73,16.72,60.65,0,110.4,13.4,16.54,51.3
"2010-06-09 00:56:00",184892,9.7,88.5,0.951,0.317,17.14,106.4276,15.73,16.7,60.63,0,110.4,13.4,16.54,50.5
"2010-06-09 00:56:30",184893,9.76,90.1,1.319,0.275,17.09,106.4276,15.73,16.7,61.13,0,110.4,13.4,16.54,52.1
"2010-06-09 00:57:00",184894,9.17,90.5,2.217,0.139,17.09,106.4268,15.73,16.68,61.2,0,110.4,13.4,16.53,52.5
"2010-06-09 00:57:30",184895,9.54,88.3,2.196,0.175,17.18,106.4175,15.7,16.66,61.13,0,110.4,13.39,16.51,50.3
"2010-06-09 00:58:00",184896,9.21,90.4,2.927,0.348,17.27,106.4048,15.67,16.66,60.96,0,110.4,13.39,16.48,52.4
"2010-06-09 00:58:30",184897,9.4,92.7,2.731,0.213,17.27,106.3957,15.65,16.64,60.95,0,110.4,13.39,16.45,54.7
"2010-06-09 00:59:00",184898,9.3,90.6,1.609,0.362,17.16,106.3946,15.64,16.63,60.63,0,110.4,13.39,16.45,52.6
"2010-06-09 00:59:30",184899,9.41,93,1.535,0.291,17.25,106.3938,15.64,16.63,60.76,0,110.4,13.39,16.45,55.0
"2010-06-09 01:00:00",184900,8.89,94,2.409,0.176,17.25,106.3938,15.64,16.64,60.65,0,110.4,13.39,16.45,56.0
"2010-06-09 01:00:30",184901,8.84,96.7,0.923,0.165,17.3,106.3941,15.64,16.62,60.92,0,110.4,13.39,16.45,58.7
"2010-06-09 01:01:00",184902,9.32,93.7,2.691,0.322,17.29,106.3946,15.64,16.61,60.52,0,110.4,13.39,16.45,55.7
"2010-06-09 01:01:30",184903,9.49,99.1,2.418,0.432,17.34,106.4025,15.66,16.63,60.52,0,110.4,13.39,16.47,61.1
"2010-06-09 01:02:00",184904,9.07,98,1.158,0.145,17.27,106.409,15.68,16.63,61.26,0,110.4,13.39,16.49,60.0
"2010-06-09 01:02:30",184905,9.11,97.3,1.118,0.106,17.3,106.4048,15.67,16.63,61.44,0,110.4,13.4,16.48,59.3
"2010-06-09 01:03:00",184906,8.67,96.6,1.622,0.252,17.25,106.3986,15.65,16.63,61.17,0,110.4,13.4,16.46,58.6
"2010-06-09 01:03:30",184907,8.69,96.8,1.106,0.138,17.23,106.3952,15.65,16.62,61.32,0,110.4,13.4,16.45,58.8
"2010-06-09 01:04:00",184908,8.46,95.2,1.848,0.174,17.26,106.3938,15.64,16.62,61.15,0,110.4,13.4,16.45,57.2
"2010-06-09 01:04:30",184909,8.47,93.6,1.069,0.097,17.2,106.3938,15.64,16.62,60.85,0,110.4,13.4,16.45,55.6
"2010-06-09 01:05:00",184910,8.45,95.3,1.255,0.107,17.23,106.3938,15.64,16.62,61.08,0,110.4,13.4,16.45,57.3
"2010-06-09 01:05:30",184911,8.42,93.2,1.787,0.099,17.24,106.3941,15.64,16.6,60.76,0,110.4,13.4,16.45,55.2
"2010-06-09 01:06:00",184912,8.43,92.5,0.519,0.112,17.13,106.3938,15.64,16.6,60.54,0,110.4,13.4,16.45,54.5
"2010-06-09 01:06:30",184913,8.35,93.9,0.754,0.157,17.22,106.3938,15.64,16.6,60.71,0,110.4,13.4,16.45,55.9
"2010-06-09 01:07:00",184914,8.31,92,0.784,0.187,17.2,106.3938,15.64,16.6,60.66,0,110.4,13.4,16.45,54.0
"2010-06-09 01:07:30",184915,8.26,88.5,1.528,0.137,17.24,106.3938,15.64,16.59,60.24,0,110.4,13.4,16.45,50.5
"2010-06-09 01:08:00",184916,8.23,87.2,0.697,0.145,17.15,106.3938,15.64,16.59,60.29,0,110.4,13.4,16.45,49.2
"2010-06-09 01:08:30",184917,8.11,88.4,0.658,0.152,17.15,106.3947,15.64,16.6,60.31,0,110.4,13.4,16.45,50.4
"2010-06-09 01:09:00",184918,8.03,89,0.908,0.11,17.21,106.3944,15.64,16.6,60.4,0,110.4,13.4,16.45,51.0
"2010-06-09 01:09:30",184919,8.01,87.8,1.715,0.114,17.23,106.3944,15.64,16.62,60.43,0,110.4,13.4,16.45,49.8
"2010-06-09 01:10:00",184920,7.816,85.6,0.797,0.091,17.22,106.395,15.64,16.61,60.22,0,110.4,13.4,16.45,47.6
"2010-06-09 01:10:30",184921,7.79,86.5,1.471,0.153,17.22,106.3949,15.64,16.61,60.44,0,110.4,13.4,16.45,48.5
"2010-06-09 01:11:00",184922,7.652,83.7,1.152,0.124,17.24,106.3993,15.66,16.61,60.43,0,110.4,13.4,16.46,45.7
"2010-06-09 01:11:30",184923,7.757,82.5,0.642,0.099,17.25,106.4058,15.67,16.61,60.32,0,110.4,13.4,16.48,44.5
"2010-06-09 01:12:00",184924,7.689,85.6,0.815,0.13,17.28,106.4155,15.7,16.62,60.51,0,110.4,13.4,16.50,47.6
"2010-06-09 01:12:30",184925,7.64,85.8,1.135,0.145,17.2,106.4178,15.7,16.62,60.85,0,110.4,13.4,16.51,47.8
"2010-06-09 01:13:00",184926,7.5,85,0.833,0.117,17.22,106.4206,15.71,16.61,61.2,0,110.4,13.4,16.52,47.0
"2010-06-09 01:13:30",184927,7.315,84.5,0.904,0.116,17.48,106.4196,15.71,16.62,61.28,0,110.4,13.4,16.51,46.5
"2010-06-09 01:14:00",184928,7.44,82.1,0.643,0.06,17.47,106.4193,15.71,16.63,61.11,0,110.4,13.4,16.51,44.1
"2010-06-09 01:14:30",184929,7.346,82.5,0.604,0.08,17.59,106.4107,15.68,16.62,61.27,0,110.4,13.4,16.49,44.5
"2010-06-09 01:15:00",184930,7.006,81.7,1.547,0.223,17.76,106.4036,15.67,16.62,61.52,0,110.4,13.4,16.47,43.7
"2010-06-09 01:15:30",184931,7,80.4,1.847,0.326,17.5,106.4028,15.66,16.62,61.59,0,110.4,13.4,16.47,42.4
"2010-06-09 01:16:00",184932,7.288,80.5,0.598,0.071,17.54,106.4037,15.67,16.61,61.37,0,110.4,13.4,16.47,42.5
"2010-06-09 01:16:30",184933,7.072,80.6,0.497,0.13,17.52,106.4034,15.67,16.59,61.61,0,110.4,13.4,16.47,42.6
"2010-06-09 01:17:00",184934,6.962,79.46,1.038,0.089,17.45,106.4049,15.67,16.61,61.66,0,110.4,13.4,16.48,41.5
"2010-06-09 01:17:30",184935,7.064,79.5,0.737,0.055,17.34,106.4058,15.67,16.6,61.74,0,110.4,13.4,16.48,41.5
"2010-06-09 01:18:00",184936,7.038,77.88,1.831,0.137,17.45,106.4064,15.67,16.58,61.88,0,110.4,13.4,16.48,39.9
"2010-06-09 01:18:30",184937,6.898,75.77,1.735,0.187,17.33,106.3973,15.65,16.58,62.32,0,110.4,13.4,16.46,37.8
"2010-06-09 01:19:00",184938,6.666,75.39,1.06,0.104,17.31,106.3719,15.59,16.57,62.81,0,110.4,13.4,16.39,37.4
"2010-06-09 01:19:30",184939,6.881,74.27,1.194,0.106,17.29,106.3711,15.58,16.54,63.71,0,110.4,13.4,16.39,36.3
"2010-06-09 01:20:00",184940,6.609,75.16,0.87,0.188,17.01,106.3412,15.51,16.52,63.52,0,110.4,13.41,16.31,37.2
"2010-06-09 01:20:30",184941,6.244,73.53,3.787,0.215,17.13,106.3364,15.49,16.47,64.01,0,110.4,13.41,16.30,35.5
"2010-06-09 01:21:00",184942,5.845,68.89,1.571,0.183,16.93,106.3074,15.42,16.45,65.19,0,110.4,13.41,16.23,30.9
"2010-06-09 01:21:30",184943,5.824,63.6,1.635,0.225,16.88,106.2784,15.35,16.39,66.39,0,110.4,13.41,16.15,25.6
"2010-06-09 01:22:00",184944,5.856,61.02,3.103,0.229,16.94,106.2439,15.26,16.32,67.15,0,110.4,13.41,16.06,23.0
"2010-06-09 01:22:30",184945,5.803,61.37,3.155,0.199,16.66,106.215,15.18,16.25,67.8,0,110.4,13.41,15.99,23.4
"2010-06-09 01:23:00",184946,5.923,60.3,3.097,0.125,16.56,106.1907,15.12,16.18,68.1,0,110.4,13.41,15.93,22.3
"2010-06-09 01:23:30",184947,5.797,55.87,2.073,0.178,16.56,106.1704,15.07,16.12,68.51,0,110.4,13.41,15.87,17.9
"2010-06-09 01:24:00",184948,6.108,56.07,1.955,0.155,16.57,106.1472,15.01,16.06,68.94,0,110.4,13.41,15.81,18.1
"2010-06-09 01:24:30",184949,6.003,60.27,1.576,0.161,16.57,106.134,14.98,16,68.86,0,110.4,13.41,15.78,22.3
"2010-06-09 01:25:00",184950,6.07,60.72,2.307,0.194,16.62,106.1162,14.93,15.97,69.21,0,110.4,13.41,15.73,22.7
"2010-06-09 01:25:30",184951,5.582,59.88,3.02,0.165,16.65,106.1176,14.93,15.91,68.92,0,110.4,13.41,15.74,21.9
"2010-06-09 01:26:00",184952,5.458,64.12,2.482,0.279,16.68,106.0934,14.87,15.88,69.08,0,110.4,13.41,15.68,26.1
"2010-06-09 01:26:30",184953,5.484,67.15,2.069,0.252,16.84,106.0899,14.86,15.86,68.66,0,110.4,13.41,15.67,29.2
"2010-06-09 01:27:00",184954,5.53,63.92,2.139,0.245,16.65,106.0905,14.86,15.84,68.77,0,110.4,13.42,15.67,25.9
"2010-06-09 01:27:30",184955,5.779,59.59,3.215,0.276,16.53,106.0911,14.87,15.84,69.87,0,110.4,13.42,15.67,21.6
"2010-06-09 01:28:00",184956,5.205,58.73,3.619,0.24,16.57,106.0894,14.86,15.82,70.03,0,110.4,13.42,15.67,20.7
"2010-06-09 01:28:30",184957,5.724,50.99,2.536,0.502,16.48,106.0635,14.8,15.77,71.05,0,110.4,13.41,15.60,13.0
"2010-06-09 01:29:00",184958,5.792,46.7,4.851,0.353,16.55,106.0575,14.78,15.74,71.07,0,110.4,13.41,15.58,8.7
"2010-06-09 01:29:30",184959,4.912,35.9,2.649,0.316,16.45,106.0389,14.73,15.71,72.37,0,110.4,13.41,15.54,357.9
"2010-06-09 01:30:00",184960,4.646,43.05,5.506,0.421,16.55,106.0237,14.69,15.67,71.75,0,110.4,13.42,15.50,5.0
"2010-06-09 01:30:30",184961,4.532,38.09,3.297,0.331,16.53,106.0172,14.68,15.64,72.14,0,110.4,13.41,15.48,0.1
"2010-06-09 01:31:00",184962,4.35,32.7,8.25,0.647,16.52,105.9929,14.61,15.62,72.08,0,110.4,13.41,15.42,354.7
"2010-06-09 01:31:30",184963,3.51,25.85,6.905,0.613,16.51,105.9898,14.61,15.6,72.59,0,110.4,13.42,15.41,347.9
"2010-06-09 01:32:00",184964,3.328,17.45,6.339,0.977,16.52,105.9898,14.61,15.57,73.33,0,110.4,13.42,15.41,339.5
"2010-06-09 01:32:30",184965,3.638,20.08,9.19,0.724,16.52,105.987,14.6,15.55,73.72,0,110.4,13.42,15.40,342.1
"2010-06-09 01:33:00",184966,3.576,23.43,10.34,1.303,16.48,105.9662,14.55,15.54,74.93,0,110.4,13.42,15.35,345.4
"2010-06-09 01:33:30",184967,4.645,37.83,6.683,0.583,16.55,105.956,14.52,15.51,73.46,0,110.4,13.43,15.32,359.8
"2010-06-09 01:34:00",184968,3.728,36.97,5.439,0.347,16.44,105.956,14.52,15.49,74.01,0,110.4,13.42,15.32,359.0
"2010-06-09 01:34:30",184969,3.936,33.42,10.06,0.798,16.49,105.954,14.52,15.48,74.58,0,110.4,13.43,15.32,355.4
"2010-06-09 01:35:00",184970,4.786,36.35,5.046,0.645,16.5,105.949,14.5,15.45,74.02,0,110.4,13.39,15.30,358.4
"2010-06-09 01:35:30",184971,5.362,44.25,8.5,1.151,18.59,105.9411,14.48,15.58,73.61,0,110.4,13.39,15.28,6.2
"2010-06-09 01:36:00",184972,4.124,34.32,3.628,0.499,16.13,105.9448,14.49,15.44,73.91,0,110.4,13.43,15.29,356.3
"2010-06-09 01:36:30",184973,4.383,42.29,6.161,0.626,15.86,105.932,14.46,15.44,73.78,0,110.4,13.43,15.26,4.3
"2010-06-09 01:37:00",184974,3.666,35.64,9.24,0.385,15.78,105.938,14.47,15.42,73.82,0,110.3,13.43,15.28,357.6
"2010-06-09 01:37:30",184975,3.769,36.24,7.649,0.935,15.84,105.9392,14.48,15.42,74.25,0,110.4,13.44,15.28,358.2
"2010-06-09 01:38:00",184976,5.147,54.71,3.246,0.347,15.98,105.9458,14.49,15.41,74.06,0,110.3,13.44,15.30,16.7
"2010-06-09 01:38:30",184977,4.206,53.46,6.65,0.247,16.16,105.9491,14.5,15.39,74.17,0,110.3,13.44,15.31,15.5
"2010-06-09 01:39:00",184978,3.404,58.57,4.672,0.369,16.37,105.95,14.5,15.38,73.98,0,110.4,13.44,15.31,20.6
"2010-06-09 01:39:30",184979,3.369,40.76,4.391,0.352,16.26,105.9518,14.51,15.36,74.17,0,110.3,13.44,15.31,2.8
"2010-06-09 01:40:00",184980,3.13,45.86,5.584,0.606,16.37,105.9517,14.51,15.36,73.97,0,110.3,13.44,15.31,7.9
"2010-06-09 01:40:30",184981,4.654,55.45,8.06,1.255,17.95,105.9549,14.52,15.42,73.89,0,110.3,13.4,15.32,17.5
"2010-06-09 01:41:00",184982,4.227,53.81,10.27,1.599,18.37,105.9504,14.51,15.49,74.06,0,110.3,13.4,15.31,15.8
"2010-06-09 01:41:30",184983,3.217,66.55,9.23,0.862,16.34,105.9461,14.49,15.35,74.06,0,110.3,13.44,15.30,28.6
"2010-06-09 01:42:00",184984,3.764,54.74,3.983,0.177,16.09,105.9467,14.5,15.35,74.21,0,110.3,13.44,15.30,16.7
"2010-06-09 01:42:30",184985,3.546,61.44,7.844,0.182,16,105.9324,14.46,15.35,74.63,0,110.3,13.44,15.26,23.4
"2010-06-09 01:43:00",184986,4.149,69.87,11.29,1.442,17.79,105.9242,14.44,15.34,74.99,0,110.3,13.4,15.24,31.9
"2010-06-09 01:43:30",184987,2.761,64.23,4.77,0.794,16.62,105.9242,14.44,15.46,75.15,0,110.3,13.4,15.24,26.2
"2010-06-09 01:44:00",184988,3.518,60.24,21.79,1.469,18.58,105.9242,14.44,15.49,75.08,0,110.3,13.4,15.24,22.2
"2010-06-09 01:44:30",184989,2.542,73.47,6.319,0.335,15.09,105.9242,14.44,15.34,75.09,0,110.3,13.43,15.24,35.5
"2010-06-09 01:45:00",184990,2.7,63.76,9.08,0.362,14.74,105.9242,14.44,15.3,74.55,0,110.3,13.43,15.24,25.8
"2010-06-09 01:45:30",184991,3.819,78.97,6.042,0.706,14.75,105.9242,14.44,15.3,74.24,0,110.3,13.43,15.24,41.0
"2010-06-09 01:46:00",184992,3.545,81.3,7.832,0.553,15.21,105.9242,14.44,15.3,74.5,0,110.3,13.43,15.24,43.3
"2010-06-09 01:46:30",184993,2.422,76.98,7.863,0.358,14.97,105.9242,14.44,15.31,75.01,0,110.3,13.44,15.24,39.0
"2010-06-09 01:47:00",184994,3.804,76,12.33,1.353,17.43,105.9211,14.43,15.46,75.54,0,110.3,13.39,15.23,38.0
"2010-06-09 01:47:30",184995,2.458,63.27,6.94,0.299,15.46,105.892,14.36,15.36,75.89,0,110.3,13.43,15.16,25.3
"2010-06-09 01:48:00",184996,2.814,75.38,6.36,0.684,15.41,105.8903,14.35,15.26,75.52,0,110.3,13.43,15.15,37.4
"2010-06-09 01:48:30",184997,4.063,82.8,5.219,0.157,15.17,105.8903,14.35,15.25,75.12,0,110.3,13.43,15.15,44.8
"2010-06-09 01:49:00",184998,3.116,73.73,7.149,0.253,15.37,105.8903,14.35,15.24,75.36,0,110.3,13.43,15.15,35.7
"2010-06-09 01:49:30",184999,2.916,62.12,9.14,0.422,15.47,105.8903,14.35,15.25,76.06,0,110.3,13.43,15.15,24.1